TIME,DELAY(SENSOR),PRES,T(CTD),SAL,OXYGEN,RAWTEMP,T(OPTODE),TCPHASE,FLUOR,BETA(BETA700),BETA(BETA412),BETA(BETA440),CDOM,C(CSC),ED(ED412.40),ED(ED444.00),ED(ED489.70),ED(ED554.30),LU(LU411.80),LU(LU443.40),LU(LU489.60),LU(LU554.10),COMP,TILTX,TILTX(TILTY),CHECK
1338759145,5809,497.4700012207031000,7.0585999488830570,34.1399002075195300,86.7494277954101600,585.3565063476562000,7.0562949180603030,47.9137496948242200,52,106,90,79,81,15336,2147746048,2147419163,2148000420,2147874029,2147630884,2147075995,2148242642,2147203995,2158,4,13,30245
1338759287,5805,486.7099914550781000,7.1371002197265625,34.1287002563476560,96.0161285400390600,583.4224243164062000,7.1184921264648440,46.8602600097656250,51,107,93,82,80,15338,2147745984,2147421705,2148000356,2147872950,2147632228,2147084397,2148244379,2147200283,2347,4,13,32754
1338759420,5807,474.8299865722656000,7.1557002067565920,34.1260986328125000,98.9562072753906200,582.3159179687500000,7.1540579795837400,46.5279808044433600,51,107,89,80,78,15332,2147746934,2147420150,2148001773,2147876278,2147628434,2147077632,2148247241,2147206208,2496,4,13,45652
1338759529,5811,464.0499877929687500,7.2913999557495120,34.1133995056152340,105.3865966796875000,578.4465942382812000,7.2783470153808590,45.7973518371582000,51,105,91,79,80,15338,2147744877,2147419721,2148000868,2147873014,2147628379,2147084772,2148243410,2147206921,2809,4,13,59975
1338759651,5809,452.8099975585937500,7.5110001564025880,34.1095008850097660,112.9108963012695300,570.8745117187500000,7.5211868286132810,44.9182395935058600,50,108,87,81,80,15336,2147745819,2147423451,2148001627,2147873298,2147629732,2147082770,2148241444,2147206326,1368,4,13,31167
1338759771,5804,442.3500061035156000,7.7446999549865720,34.1096000671386700,119.6535034179687500,564.3325805664062000,7.7305831909179690,44.1553611755371100,50,105,91,81,78,15333,2147742509,2147422262,2148000640,2147875318,2147627748,2147087378,2148243995,2147204589,3509,4,13,48258
1338759902,5810,431.4500122070312500,7.9647998809814450,34.1085014343261700,128.7093963623047000,557.0610961914062000,7.9629001617431640,43.1889610290527340,50,106,89,81,78,15335,2147747940,2147425472,2147999862,2147874486,2147626322,2147083565,2148238902,2147204845,302,4,13,15819
1338760036,5806,420.8900146484375000,8.1944999694824220,34.1091995239257800,138.0325927734375000,549.7709960937500000,8.1953620910644530,42.2378807067871100,51,106,90,80,78,15334,2147746194,2147421184,2147999890,2147874962,2147626715,2147091209,2148239972,2147204050,729,5,13,8570
1338760189,5807,409.6799926757812500,8.5160999298095700,34.1064987182617200,149.7122039794922000,538.6397094726562000,8.5494709014892580,41.0660209655761700,50,109,89,81,76,15332,2147741229,2147423734,2147999469,2147876242,2147623579,2147090450,2148234761,2147203931,1268,4,13,36797
1338760333,5809,397.9599914550781000,8.7201004028320310,34.1073989868164060,156.5859069824218800,533.1212158203125000,8.7246589660644530,40.4230995178222660,50,105,90,81,76,15334,2147740900,2147420397,2147996781,2147875419,2147623140,2147090742,2148237504,2147203574,1326,4,13,29513
1338760442,5811,387.3200073242187500,8.9390001296997070,34.1088981628418000,163.1520996093750000,526.1890258789062000,8.9443855285644530,39.7971992492675800,50,108,90,79,75,15330,2147740690,2147422656,2147997458,2147875821,2147622409,2147096338,2148233554,2147207424,1359,4,13,61571
1338760551,5807,376.4400024414062500,9.3719997406005860,34.1133995056152340,172.0606994628906200,513.3878784179688000,9.3491802215576170,38.9181594848632800,50,107,91,83,75,15333,2147741659,2147420123,2148000713,2147873883,2147620864,2147095725,2148232722,2147206198,236,4,13,11294
1338760663,5809,364.7300109863281000,9.5085000991821290,34.1176986694335940,178.2406005859375000,506.8583068847656000,9.5551967620849610,38.3693389892578100,50,105,91,79,73,15333,2147736539,2147419035,2148001508,2147873956,2147618788,2147101339,2148226953,2147202020,300,4,13,5967
1338760761,5806,353.9700012207031000,10.0040998458862300,34.1276016235351560,187.5043029785156200,492.7210998535156000,10.0002002716064450,37.4993209838867200,50,104,90,81,73,15334,2147739629,2147419620,2148002102,2147876562,2147616932,2147102592,2148229860,2147205001,1078,4,14,60764
1338760870,5807,342.6000061035156000,10.2624998092651370,34.1442985534668000,196.9777984619140600,483.3676147460937500,10.2938804626464840,36.7321395874023440,50,110,90,81,72,15334,2147736274,2147422747,2148000804,2147878710,2147613942,2147103131,2148224649,2147204836,726,4,13,46081
1338760986,5807,332.2600097656250000,10.6447000503540040,34.1593017578125000,207.6996002197265600,472.5830078125000000,10.6317901611328120,35.8994293212890600,49,107,91,81,72,15332,2147735378,2147422656,2148003693,2147874980,2147615030,2147108425,2148226514,2147206107,1238,4,14,38546
1338761139,5811,321.5299987792969000,10.8740997314453120,34.1697998046875000,208.7776031494140600,465.2030029296875000,10.8626003265380860,35.7143211364746100,49,110,91,80,71,15329,2147731136,2147420635,2148006473,2147871890,2147612845,2147111323,2148224713,2147206582,1258,4,13,1705
1338761290,5807,310.0000000000000000,11.0186996459960940,34.1697998046875000,196.6726074218750000,459.5466918945312500,11.0392799377441400,36.3554916381835940,50,109,88,81,73,15327,2147730953,2147424100,2148012251,2147873106,2147607808,2147115666,2148224621,2147205376,3302,3,14,26791
1338761410,5807,299.8599853515625000,11.4716997146606450,34.1809997558593750,192.3271942138672000,444.8942871093750000,11.4960803985595700,36.3914299011230500,49,109,91,79,71,15326,2147731922,2147427172,2148020507,2147872941,2147605632,2147117065,2148228626,2147208237,1530,4,15,59455
1338761554,5806,288.6700134277344000,12.3341999053955080,34.2386016845703100,194.3704071044922000,418.0791015625000000,12.3290500640869140,35.8285102844238300,48,110,89,80,71,15324,2147728640,2147428982,2148028315,2147875410,2147605750,2147122569,2148223808,2147208960,1538,4,14,56719
1338761707,5810,277.6700134277344000,13.3858995437622070,34.2989997863769500,197.8576049804687500,382.3591918945312500,13.4333000183105470,35.0498390197753900,50,111,88,82,70,15321,2147728338,2147432045,2148045129,2147873353,2147598985,2147130276,2148234075,2147208630,1039,3,14,65500
1338761871,5808,266.3599853515625000,14.1183004379272460,34.3683013916015600,198.4373016357422000,359.5223999023437500,14.1365804672241210,34.6630706787109400,50,113,94,80,70,15317,2147723474,2147437796,2148062811,2147873554,2147596379,2147139730,2148238089,2147211574,3410,3,14,61603
1338761992,5805,255.5700073242187500,14.3628997802734380,34.3950996398925800,199.8267059326172000,351.1343078613281000,14.3944396972656250,34.4510307312011700,49,113,91,82,70,15314,2147723346,2147446628,2148092809,2147872064,2147595181,2147147894,2148244653,2147210048,268,3,14,45706
1338762112,5808,244.7400054931640600,14.6631002426147460,34.4178009033203100,200.2920074462890600,342.3677978515625000,14.6637001037597660,34.2903289794921900,50,112,92,83,70,15312,2147720850,2147464237,2148133220,2147871268,2147592365,2147155657,2148266093,2147214162,649,3,14,28013
1338762246,5810,233.1699981689453000,14.9405002593994140,34.4455986022949200,200.9772033691406200,333.4082946777344000,14.9386596679687500,34.1151504516601560,49,110,89,81,70,15308,2147722020,2147486637,2148191945,2147875748,2147591323,2147174509,2148283675,2147219501,1114,3,15,46800
1338762377,5809,222.2500000000000000,15.2727003097534180,34.4695014953613300,201.6540985107422000,320.8467102050781000,15.3238096237182620,33.8876991271972660,50,111,89,82,70,15311,2147727396,2147518006,2148279369,2147874578,2147590381,2147193325,2148333705,2147220205,1519,4,15,39165
1338762510,5808,212.1199951171875000,16.2597999572753900,34.5684013366699200,203.9998931884765600,290.1510009765625000,16.2635002136230470,33.2990493774414060,51,110,91,81,68,15311,2147733083,2147560064,2148386742,2147874221,2147591954,2147217188,2148382061,2147219702,2370,3,14,62355
1338762685,5808,201.2299957275390600,17.3719997406005860,34.6911010742187500,205.5778045654297000,253.2133026123047000,17.3924007415771500,32.6784095764160160,53,109,93,82,68,15312,2147747702,2147631323,2148540800,2147879003,2147593426,2147266267,2148452297,2147226523,1370,3,14,12445
1338762739,5805,198.5599975585937500,17.6793003082275400,34.7293014526367200,207.0509948730468800,246.7512054443359400,17.5897693634033200,32.5031585693359400,56,112,91,82,66,15308,2147753956,2147655076,2148587245,2147877321,2147596233,2147287369,2148473069,2147230089,1860,3,15,38817
1338762824,5807,195.0500030517578000,17.8512001037597660,34.7508010864257800,207.1651000976562500,238.6551055908203000,17.8370304107666000,32.3832206726074200,63,119,92,82,67,15303,2147760256,2147689837,2148652873,2147874834,2147597376,2147300059,2148498066,2147233901,3021,3,15,56438
1338762944,5811,190.8300018310547000,18.3304996490478500,34.8073005676269500,207.3056030273437500,223.0187072753906200,18.3145294189453120,32.1566505432128900,69,117,91,83,68,15294,2147780077,2147744722,2148763346,2147876233,2147599963,2147329069,2148544137,2147235254,2209,3,15,25878
1338763053,5810,186.5399932861328000,18.4547996520996100,34.8250007629394500,208.5153045654297000,218.6197967529297000,18.4488697052001950,32.0275688171386700,67,116,91,83,66,15287,2147804187,2147815332,2148900781,2147880457,2147606875,2147375104,2148604790,2147238710,1610,3,15,46045
1338763128,5802,182.4299926757812500,18.5813007354736330,34.8361015319824200,208.7756958007812500,214.4037017822265600,18.5776290893554700,31.9550800323486330,69,116,91,84,67,15285,2147832173,2147900425,2149063378,2147878317,2147616777,2147417810,2148677659,2147244626,1552,3,15,41960
1338763182,5807,178.7899932861328000,18.8885993957519530,34.8731002807617200,208.5910034179687500,204.4396057128906200,18.8819599151611330,31.8276596069335940,67,116,91,82,67,15291,2147860854,2147980397,2149211273,2147880557,2147630116,2147465133,2148749083,2147253312,1110,2,15,4946
1338763236,5809,175.2799987792968800,19.0165004730224600,34.8959007263183600,210.2586975097656200,199.5747985839843800,19.0305690765380860,31.6689205169677730,68,115,93,82,66,15293,2147896384,2148065645,2149363584,2147878217,2147641252,2147508480,2148816027,2147257298,479,3,15,55763
1338763301,5807,171.2400054931640600,19.1699008941650400,34.9133987426757800,211.6024017333984400,195.3464965820312500,19.1597499847412100,31.5378303527832030,72,115,92,82,66,15293,2147946550,2148177965,2149570422,2147878747,2147660736,2147569270,2148909284,2147266541,622,3,15,11847
1338763366,5809,167.4900054931640600,19.3325004577636720,34.9282989501953100,211.1755981445312500,185.5939025878906200,19.4577598571777340,31.4282398223876950,75,118,89,82,65,15281,2148000521,2148301257,2149798784,2147881188,2147680676,2147630884,2149003602,2147274596,782,3,16,31940
1338763451,5807,164.2200012207031200,19.8199005126953120,34.9687004089355500,211.5935974121093800,176.4656982421875000,19.7367992401123050,31.2815208435058600,88,118,91,83,65,15273,2148048795,2148405394,2149975542,2147881453,2147698834,2147690230,2149085046,2147279625,839,3,15,62788
1338763745,5810,160.2299957275390600,20.0704994201660160,35.0035018920898440,213.7648925781250000,165.7534027099609400,20.0643997192382800,31.0207691192626950,92,119,95,83,64,15272,2148103698,2148531977,2150224210,2147885385,2147717558,2147749046,2149176576,2147286930,1696,2,16,43460
1338763865,5808,155.8000030517578000,20.2679996490478500,35.0189018249511700,214.1425933837890600,160.0258941650390600,20.2396297454834000,30.9239597320556640,99,122,90,82,64,15258,2148213540,2148755620,2150616877,2147888722,2147757769,2147845275,2149328045,2147299574,2489,3,16,8478
1338763974,5806,151.9900054931640600,20.3234996795654300,35.0262985229492200,214.8451995849609400,157.4705047607422000,20.3178291320800780,30.8522891998291000,101,121,92,83,65,15251,2148333028,2148976182,2150989833,2147893449,2147802477,2147947053,2149481828,2147311716,3426,2,16,22935
1338764074,5810,147.8699951171875000,20.6685009002685550,35.0452995300293000,215.2745056152343800,146.8242034912109400,20.6437606811523440,30.6879196166992200,106,126,91,82,66,15246,2148537261,2149354916,2151613275,2147897773,2147875565,2148111808,2149704603,2147331666,3398,2,16,27307
1338764183,5807,143.8699951171875000,21.0874004364013670,35.0814018249511700,218.1016998291015600,133.2115936279297000,21.0608692169189450,30.3607807159423830,123,127,95,82,64,15228,2148775954,2149742034,2152201051,2147908891,2147960868,2148270107,2149917120,2147351744,264,3,15,10379
1338764325,5806,140.2599945068359400,21.3687992095947270,35.1064987182617200,220.9040985107422000,123.7520980834961000,21.3509807586669920,30.0935192108154300,137,130,91,84,64,15215,2149168740,2150408539,2153197184,2147916022,2148095122,2148511725,2150247058,2147376649,667,2,15,15402
1338764469,5807,135.8999938964843800,21.7322998046875000,35.1273002624511700,224.2718048095703000,111.6447982788086000,21.7226600646972660,29.7670307159423830,147,131,93,85,64,15194,2149807085,2151402038,2154558518,2147935963,2148313170,2148874907,2150703296,2147417892,1362,2,16,7174
1338764578,5808,131.8800048828125000,22.0550003051757800,35.1572990417480500,225.4891052246093800,101.6803970336914000,22.0288791656494140,29.5782508850097660,158,131,95,86,63,15179,2150591515,2152611776,2156174518,2147957028,2148573842,2149301129,2151239689,2147471506,2260,1,16,54245
1338764711,5808,126.8700027465820300,22.2852001190185550,35.1628990173339840,229.4925994873047000,94.1053390502929700,22.2618999481201170,29.2863807678222660,146,130,95,84,64,15175,2151882294,2154503926,2158546221,2147988251,2149056502,2150051200,2152132809,2147547008,1893,2,15,46457
1338764776,5807,123.2500000000000000,22.3349990844726560,35.1646995544433600,230.7864074707031200,91.6460571289062500,22.3375892639160160,29.1932106018066400,152,131,94,83,63,15172,2153174043,2156323885,2160706752,2148028224,2149524909,2150740214,2152896512,2147627273,2558,2,16,21126
1338764841,5809,119.6500015258789000,22.5706996917724600,35.1608009338378900,230.4853057861328000,83.2443237304687500,22.5963401794433600,29.1003093719482420,142,127,93,84,63,15183,2154646281,2158266486,2162825252,2148061001,2150054189,2151497572,2153713856,2147705371,67,2,15,51010
1338764928,5813,116.0599975585937500,22.8176002502441400,35.1801986694335940,232.9512939453125000,76.5825271606445300,22.8016891479492200,28.8990192413330080,128,125,94,84,62,15193,2156531620,2160800877,2165650121,2148118793,2150803876,2152526473,2154787776,2147811099,3474,2,16,61069
1338765028,5810,113.0000000000000000,22.8740997314453120,35.1843986511230500,234.2973937988281200,74.6253204345703100,22.8620605468750000,28.8114700317382800,117,122,89,84,61,15196,2158576073,2163330925,2168131529,2148169298,2151700141,2153701769,2155914733,2147924013,3260,2,16,24217
1338765170,5804,109.2200012207031200,22.9775009155273440,35.1671981811523440,235.6000976562500000,71.0032730102539000,22.9738101959228500,28.7052307128906250,111,124,90,84,62,15197,2161896466,2167273600,2171899300,2148256365,2153210578,2155642797,2157703689,2148092105,3513,2,16,647
1338765324,5808,104.8600006103515600,23.1935997009277340,35.1497001647949200,238.5198974609375000,64.0282592773437500,23.1891708374023440,28.4836406707763670,103,128,92,84,61,15188,2166156498,2172347136,2176617636,2148385417,2155528438,2158457910,2160162697,2148337627,2354,2,16,38163
1338765433,5807,100.6500015258789000,23.3404998779296880,35.1425018310546900,241.0415039062500000,59.2111892700195300,23.3380107879638670,28.3094806671142580,93,126,93,84,60,15192,2171341056,2178384832,2182381046,2148585865,2158510912,2162008868,2163251629,2148633819,1051,2,16,1535
1338765487,5807,98.7699966430664000,23.3978996276855470,35.1376991271972660,241.7171020507812500,57.5310211181640600,23.3899593353271500,28.2582302093505860,89,124,93,85,60,15193,2173148370,2180403446,2184066486,2148641206,2159778697,2163445366,2164372224,2148732361,349,2,16,49280
1338765541,5809,97.0299987792968800,23.4314994812011720,35.1360015869140600,242.6596069335937500,56.0942611694335940,23.4343795776367200,28.1983699798584000,87,126,95,84,60,15183,2175926317,2183675529,2187058916,2148753718,2161577499,2165501897,2166016896,2148885787,3427,2,16,59150
1338765629,5810,93.7500000000000000,23.5156993865966800,35.1316986083984400,243.3052062988281200,53.7458190917968750,23.5070209503173830,28.1404895782470700,79,125,93,86,60,15187,2181331337,2189554770,2192198272,2148995474,2165278500,2169585728,2169146468,2149190646,3162,2,16,63830
1338765683,5809,91.0999984741211000,23.5463008880615230,35.1291999816894500,243.8188018798828000,52.5002403259277340,23.5455608367919920,28.1022605895996100,78,124,94,84,61,15190,2185419867,2193713362,2195623835,2149171913,2168507264,2173194998,2171877129,2149449417,16,2,16,36703
1338765737,5806,88.3000030517578100,23.5823993682861330,35.1255989074707000,244.1567993164062500,51.3137817382812500,23.5822696685791000,28.0726203918457030,74,124,94,86,60,15186,2191587474,2200480384,2202030253,2149532068,2172409682,2177547456,2175211510,2149788214,396,2,16,3774
1338765791,5809,85.5299987792968800,23.6390991210937500,35.1228981018066400,244.4819946289062500,49.6310501098632800,23.6343498229980470,28.0373306274414060,74,127,94,85,57,15184,2196868105,2205771337,2206477357,2149837549,2176534518,2181991168,2178493897,2150110811,522,2,16,15760
1338765845,5807,82.6500015258789000,23.6875991821289060,35.1226005554199200,244.5802001953125000,47.9120292663574200,23.6875591278076170,28.0116596221923830,72,122,93,85,56,15183,2203107840,2212123328,2211976685,2150196406,2181145901,2186825206,2181930496,2150462436,713,1,16,33201
1338765899,5806,79.8399963378906200,23.7268009185791000,35.1208000183105500,244.8661956787109400,46.6073493957519500,23.7279605865478500,27.9829502105712900,71,122,91,84,57,15174,2210935140,2220371730,2219506733,2150772973,2186962550,2192994560,2186532580,2150938953,164,1,16,9273
1338765956,5807,76.9599990844726600,23.8425006866455080,35.1162986755371100,244.9158935546875000,43.0274009704589840,23.8388595581054700,27.9365100860595700,69,123,91,84,59,15180,2218911780,2228647122,2226956205,2151470628,2193145600,2199354779,2191083876,2151449792,3264,2,16,37569
1338766010,5809,74.6100006103515600,23.9076004028320300,35.1138992309570300,245.0319061279297000,41.1135482788085940,23.8981704711914060,27.9077205657959000,67,121,93,85,58,13020,2223484105,2232741184,2229890614,2151802797,2198135753,2204360118,2194492297,2151800566,2342,1,17,19537
1338766064,5808,72.5899963378906200,23.9953994750976560,35.1044006347656250,244.7743072509765600,37.6648902893066400,24.0050792694091800,27.8764705657959000,66,122,92,85,62,15180,2231984850,2241619666,2238333348,2152589760,2204165056,2210410541,2198670820,2152290075,1771,2,17,34290
1338766118,5809,70.7099990844726600,24.1954002380371100,35.0979003906250000,244.6215057373047000,32.9135208129882800,24.1524791717529300,27.8243293762207030,64,122,96,86,59,15175,2235596470,2244480859,2240288850,2153036370,2208618651,2214440228,2201132251,2152588059,1591,2,16,45547
1338766172,5809,69.3199996948242200,24.2191009521484380,35.0825996398925800,244.7263946533203000,31.1161193847656250,24.2082805633544920,27.7976207733154300,62,123,95,84,57,15182,2241864155,2251244224,2246695661,2153538916,2214166528,2220235940,2205398144,2153049270,1540,2,16,9738
1338766282,5807,66.3899993896484400,24.4897003173828120,35.0970993041992200,243.9776000976562500,23.1294002532959000,24.4563808441162100,27.7320194244384770,62,120,92,84,61,15170,2251463597,2260750089,2255467968,2154874395,2224257152,2229534692,2211490468,2153796059,994,2,16,5354
1338766336,5807,64.3099975585937500,24.5764999389648440,35.0993003845214840,243.9600982666015600,19.5561408996582030,24.5674896240234380,27.6889495849609380,64,122,92,85,60,15176,2257106441,2266305042,2260333769,2155768402,2231582765,2236219108,2215781696,2154348690,1275,2,17,55849
1338766390,5809,62.2000007629394500,24.6348991394042970,35.1001014709472660,244.1049041748047000,17.6334400177001950,24.6273002624511720,27.6589107513427730,62,121,91,84,57,15176,2263388946,2272596105,2266109184,2156864256,2239350848,2243160402,2220133924,2154895186,1210,2,16,27111
1338766444,5805,60.0400009155273440,24.6875991821289060,35.0819015502929700,243.7532958984375000,15.8633804321289060,24.6823902130126950,27.6526908874511720,59,118,93,85,57,15175,2271904539,2281714048,2275013897,2158496694,2248931602,2252186496,2226389622,2155807094,1313,2,16,55575
1338766498,5806,58.0800018310546900,24.7119998931884770,35.0759010314941400,243.3941040039062500,14.8600397109985350,24.7136192321777340,27.6560897827148440,59,118,91,85,54,15178,2274898212,2284239817,2277124589,2159391698,2256920548,2259276342,2230797101,2156329170,1293,2,17,19299
1338766586,5809,54.6500015258789060,24.7268009185791000,35.0662002563476560,242.8899993896484400,14.2871599197387700,24.7314491271972660,27.6710605621337900,58,118,94,85,59,15177,2293284196,2304380324,2297178249,2163800155,2278523200,2278931876,2243499200,2158195401,1721,2,17,9716
1338766640,5809,51.9099998474121100,24.7425994873046880,35.0561981201171900,242.5794982910156200,13.8102703094482420,24.7462997436523440,27.6788597106933600,58,120,94,84,56,15180,2303361764,2315012260,2307101065,2166083172,2293329673,2291811931,2251144749,2159335643,1942,2,16,59925
1338766694,5807,49.2500000000000000,24.7562007904052730,35.0513992309570300,242.3563995361328000,13.3991804122924800,24.7590999603271500,27.6836605072021500,56,118,93,84,59,15172,2314887524,2327293165,2319520347,2169872237,2310869942,2307521389,2261142418,2160945362,2007,2,16,48611
1338766748,5808,46.7599983215332000,24.7747001647949220,35.0378990173339840,242.0762939453125000,12.6655101776123050,24.7819499969482420,27.6870307922363280,55,118,94,83,54,15169,2329700736,2343373696,2336072585,2174824603,2329398994,2324596150,2272292370,2162761563,1831,1,16,25328
1338766802,5805,44.4599990844726560,24.7910995483398440,35.0181999206543000,241.9290924072265600,12.1163301467895500,24.7990493774414060,27.6867904663085940,55,119,93,84,58,15178,2335746157,2348201636,2341086052,2178233728,2343489691,2336367506,2279461979,2163902354,907,2,16,54921
1338766856,5809,42.3499984741210940,24.7992992401123050,35.0060005187988300,241.6383056640625000,11.7233400344848630,24.8112907409667970,27.6947593688964840,52,114,93,84,56,15187,2345577600,2359121142,2352342445,2183128630,2359930313,2350439140,2288067584,2165561581,325,1,17,18722
1338766913,5807,40.0800018310546900,24.8054008483886720,35.0018005371093750,241.5307006835937500,11.5565395355224610,24.8164901733398440,27.6975307464599600,53,116,92,83,58,15184,2351682980,2364034624,2356714130,2187418285,2378755931,2366958473,2297876032,2167100937,253,1,17,38062
1338766967,5757,37.9399986267089840,24.8066997528076170,35.0023002624511700,241.7185058593750000,11.4354696273803710,24.8202590942382800,27.6876392364501950,52,116,92,84,57,15193,2359865270,2372641453,2366090688,2192951122,2391686134,2377375451,2303369938,2168417782,173,1,16,4652
1338767021,5807,35.7999992370605500,24.8097000122070300,35.0019989013671900,241.5664062500000000,11.3459796905517580,24.8230495452880860,27.6933708190917970,52,115,91,83,54,15179,2396655030,2416376210,2412755520,2208232173,2413261778,2395461229,2314739136,2171988836,3266,2,16,51769
1338767075,5810,33.6100006103515600,24.8092002868652340,35.0018997192382800,241.6625061035156200,11.3747901916503900,24.8221492767334000,27.6894207000732420,53,115,88,82,57,15200,2385155483,2401128182,2396294738,2209270683,2434599131,2414742619,2326842404,2173930523,3136,1,17,56287
1338767129,5805,31.3600006103515620,24.8111991882324220,35.0015983581543000,241.6842041015625000,11.2849998474121100,24.8249492645263670,27.6872501373291000,52,116,90,85,60,15207,2398232960,2414706514,2410157796,2218703634,2459096960,2436045174,2339849892,2176757184,3009,1,16,6348